[[{"header":{"parameterUnit":"m.s-1","parameterCategory":1,"la1":30.2991,"la2":30.254,"lo1":-89.0895,"lo2":-89.0444,"dy":0.0017,"dx":0.0017,"nx":28,"ny":28,"refTime":"2024-10-07T09:00:00:Z","depth":0,"parameterNumber":2,"parameterNumberName":"U-component_of_WINDS"},"data":[0,0,0,0,0,0,0,0,0,0,0,0,0,0,0,0,0,0,0,0,0,0,0,0,0,0,0,0,0,0,0,0,0,0,0,0,0,0,0,0,0,0,0,0,0,0,0,0,0,0,0,0,0,0,0,0,0,0,-1.018,-1.018,0,-1.0235,-1.0235,-1.0236,-1.0228,-1.0227,-1.0226,-1.0225,-1.0282,-1.0285,-1.0287,0,0,0,0,0,0,0,0,0,0,0,0,0,-1.0067,-1.0069,-1.0179,-1.018,-1.0181,-1.0235,-1.0235,-1.0236,-1.0228,-1.0227,-1.0226,-1.0225,-1.0282,-1.0284,-1.0287,0,0,0,0,0,0,0,0,0,0,0,0,0,-1.0118,-1.007,-1.0179,-1.0183,-1.0184,-1.0234,-1.0235,-1.0236,-1.0228,-1.0227,-1.0225,-1.0224,-1.0281,-1.0284,-1.0288,-1.0338,0,0,-1.0299,-1.03,0,0,0,0,0,0,0,0,-1.0116,-1.0123,-1.0182,-1.0183,-1.0184,-1.0223,-1.0217,-1.027,-1.0229,-1.0211,-1.0225,-1.0223,-1.0264,-1.0269,-1.0282,-1.0341,-1.0343,-1.0299,-1.0301,-1.0303,-1.0304,0,0,0,0,0,0,0,-1.0112,-1.012,-1.0201,-1.0183,-1.0184,-1.0182,-1.0188,-1.0227,-1.0245,-1.0213,-1.0212,-1.0219,-1.0264,-1.0279,-1.0283,-1.0344,-1.0299,-1.0302,-1.0304,-1.0306,-1.0447,-1.0448,0,0,0,0,0,0,-1.0107,-1.0117,-1.02,-1.0203,-1.0146,-1.0185,-1.0192,-1.0212,-1.0244,-1.0248,-1.022,-1.0218,-1.0273,-1.0279,-1.0285,-1.0347,-1.0303,-1.0306,-1.0308,-1.0445,-1.0447,-1.0449,0,0,0,0,0,0,-1.0105,-1.0115,-1.0197,-1.016,-1.017,-1.0189,-1.0211,-1.0214,-1.0228,-1.025,-1.0253,-1.0232,-1.0272,-1.028,-1.0325,-1.0349,-1.0308,-1.0311,-1.0443,-1.0446,-1.0448,-1.047,0,0,0,0,0,0,-1.0102,-1.0114,-1.0133,-1.0161,-1.0172,-1.0236,-1.0213,-1.0216,-1.0234,-1.0233,-1.0262,-1.0265,-1.0272,-1.032,-1.0329,-1.0353,-1.0314,-1.0441,-1.0444,-1.0447,-1.0467,-1.0473,-1.0478,0,0,0,0,0,-1.0098,-1.0138,-1.0134,-1.0144,-1.0197,-1.0237,-1.0244,-1.0251,-1.0236,-1.0256,-1.027,-1.0264,-1.0344,-1.0324,-1.0334,-1.036,-1.044,-1.0443,-1.0447,-1.0465,-1.0472,-1.0478,0,0,0,0,0,0,-1.0113,-1.0141,-1.0138,-1.0188,-1.021,-1.0236,-1.0261,-1.0258,-1.0285,-1.0283,-1.029,-1.0297,-1.0342,-1.0355,-1.0332,-1.041,-1.039,-1.0396,-1.04,-1.0407,-1.0412,-1.0409,-1.0317,0,0,0,0,0,-1.0122,-1.0153,-1.0175,-1.0217,-1.0229,-1.0243,-1.0261,-1.0264,-1.0288,-1.0297,-1.0314,-1.0337,-1.0368,-1.0388,-1.0417,-1.0468,-1.0475,-1.0491,-1.0496,-1.05,-1.0506,-1.0534,-1.0542,-1.046,-1.046,-1.046,0,0,-1.0142,-1.0161,-1.018,-1.0221,-1.0239,-1.027,-1.0251,-1.0285,-1.0309,-1.0302,-1.0346,-1.0359,-1.0385,-1.0434,-1.0456,-1.0446,-1.0529,-1.0505,-1.0508,-1.0511,-1.0539,-1.0547,-1.0553,-1.0463,-1.0462,-1.0462,0,0,-1.0194,-1.0211,-1.0248,-1.0265,-1.0292,-1.0301,-1.031,-1.0336,-1.0345,-1.0388,-1.0384,-1.0412,-1.0464,-1.0483,-1.05,-1.0557,-1.0553,-1.0566,-1.0594,-1.0622,-1.0628,-1.0634,-1.0656,-1.0663,-1.0571,-1.0571,-1.0571,0,-1.0215,-1.0262,-1.0267,-1.0302,-1.032,-1.0315,-1.0352,-1.0369,-1.0404,-1.0417,-1.0406,-1.0471,-1.0488,-1.0541,-1.0555,-1.0568,-1.0579,-1.0564,-1.0627,-1.0633,-1.0638,-1.0659,-1.0667,-1.0573,-1.0573,-1.0572,-1.0572,0,-1.0287,-1.0319,-1.0346,-1.038,-1.0401,-1.0437,-1.0447,-1.0468,-1.0468,-1.0479,-1.0523,-1.0543,-1.0576,-1.0589,-1.059,-1.0642,-1.0635,-1.0625,-1.0605,-1.0647,-1.0667,-1.0675,-1.0575,-1.0574,-1.0574,-1.0574,0,0,-1.0352,-1.0387,-1.0397,-1.0412,-1.0441,-1.0466,-1.0501,-1.0533,-1.0551,-1.0575,-1.0606,-1.0649,-1.064,-1.0658,-1.0662,-1.0686,-1.0731,-1.0673,-1.0673,-1.0684,-1.079,-1.0799,-1.0808,-1.0727,-1.0729,-1.073,-1.0788,0,-1.0407,-1.047,-1.0475,-1.0532,-1.0562,-1.0557,-1.0587,-1.0608,-1.0618,-1.0646,-1.0656,-1.0688,-1.0672,-1.0684,-1.0707,-1.072,-1.0753,-1.0716,-1.0757,-1.0758,-1.0752,-1.0818,-1.0827,-1.0881,-1.0796,-1.0797,-1.0798,0,-1.0481,-1.0507,-1.0567,-1.0591,-1.0603,-1.0631,-1.0661,-1.0687,-1.071,-1.0716,-1.0736,-1.0735,-1.0772,-1.0749,-1.0799,-1.0774,-1.0791,-1.08,-1.0802,-1.0807,-1.0782,-1.0826,-1.0898,-1.0907,-1.081,-1.0809,-1.0808,0,-1.0524,-1.0574,-1.0616,-1.0629,-1.0657,-1.0677,-1.069,-1.0712,-1.0731,-1.0756,-1.0769,-1.0798,-1.0815,-1.0838,-1.0845,-1.0828,-1.0896,-1.0873,-1.0902,-1.0902,-1.0918,-1.0918,-1.0995,-1.0926,-1.0926,-1.0926,-1.0926,0,-1.0587,-1.0624,-1.0635,-1.0662,-1.0703,-1.0707,-1.0748,-1.076,-1.0779,-1.0807,-1.0804,-1.083,-1.0838,-1.0866,-1.0872,-1.0913,-1.092,-1.0926,-1.0928,-1.0928,-1.0927,-1.094,-1.0937,-1.0928,-1.0928,-1.0927,-1.0927,0,-1.0643,-1.0652,-1.0698,-1.0721,-1.0727,-1.0757,-1.0776,-1.0802,-1.081,-1.0846,-1.0855,-1.0869,-1.0901,-1.0911,-1.095,-1.0954,-1.1003,-1.1,-1.0995,-1.0995,-1.1024,-1.1022,-1.1115,-1.1127,-1.1048,-1.1049,-1.105,0,-1.0683,-1.0711,-1.0737,-1.0756,-1.0769,-1.0799,-1.0818,-1.0823,-1.0844,-1.0872,-1.0893,-1.0925,-1.0952,-1.1004,-1.1018,-1.1048,-1.1047,-1.1077,-1.1051,-1.105,-1.1049,-1.1048,-1.1051,-1.1082,-1.1083,-1.1084,-1.1084,0,-1.0754,-1.0757,-1.0784,-1.0814,-1.0836,-1.0859,-1.0881,-1.0897,-1.0905,-1.0928,-1.0961,-1.0981,-1.1021,-1.1053,-1.1083,-1.1096,-1.1092,-1.1092,-1.1101,-1.1102,-1.1098,-1.1102,-1.101,-1.109,-1.109,-1.1089,-1.1089,-1.1089,-1.0805,-1.0829,-1.0851,-1.0882,-1.0899,-1.092,-1.0944,-1.0956,-1.0983,-1.1016,-1.1017,-1.1053,-1.1075,-1.1115,-1.113,-1.1158,-1.1149,-1.1162,-1.1165,-1.1168,-1.1171,-1.1092,-1.1164,-1.1163,-1.1163,-1.1163,-1.1163,0,-1.0876,-1.089,-1.0918,-1.0949,-1.0973,-1.0966,-1.099,-1.101,-1.1042,-1.1063,-1.1088,-1.1126,-1.1157,-1.1173,-1.1203,-1.1223,-1.1222,-1.1231,-1.1231,-1.1234,-1.1177,-1.1167,-1.1231,-1.1231,-1.1231,-1.1231,-1.1231,-1.1231,-1.0917,-1.0959,-1.0964,-1.1014,-1.1027,-1.1063,-1.1077,-1.1096,-1.1113,-1.1155,-1.1181,-1.119,-1.1209,-1.124,-1.1268,-1.1272,-1.1284,-1.1295,-1.1298,-1.1245,-1.1238,-1.1231,-1.1222,-1.1297,-1.1297,-1.1352,-1.1353,-1.1353]},{"header":{"parameterUnit":"m.s-1","parameterCategory":1,"la1":30.2991,"la2":30.254,"lo1":-89.0895,"lo2":-89.0444,"dy":0.0017,"dx":0.0017,"nx":28,"ny":28,"refTime":"2024-10-07T09:00:00:Z","depth":0,"parameterNumber":3,"parameterNumberName":"V-component_of_WINDS"},"data":[0,0,0,0,0,0,0,0,0,0,0,0,0,0,0,0,0,0,0,0,0,0,0,0,0,0,0,0,0,0,0,0,0,0,0,0,0,0,0,0,0,0,0,0,0,0,0,0,0,0,0,0,0,0,0,0,0,0,-5.3792,-5.3793,0,-5.383,-5.383,-5.3831,-5.3777,-5.3775,-5.3773,-5.3772,-5.3805,-5.3808,-5.381,0,0,0,0,0,0,0,0,0,0,0,0,0,-5.3668,-5.3671,-5.3792,-5.3793,-5.3793,-5.383,-5.3831,-5.3831,-5.3777,-5.3775,-5.3773,-5.3771,-5.3804,-5.3807,-5.3811,0,0,0,0,0,0,0,0,0,0,0,0,0,-5.3716,-5.3672,-5.3792,-5.3771,-5.3769,-5.383,-5.3831,-5.3831,-5.3778,-5.3775,-5.3772,-5.377,-5.3803,-5.3807,-5.3811,-5.3892,0,0,-5.3823,-5.3825,0,0,0,0,0,0,0,0,-5.3713,-5.372,-5.3774,-5.3772,-5.3771,-5.3796,-5.3799,-5.3851,-5.3779,-5.3775,-5.3772,-5.3768,-5.3804,-5.3808,-5.3821,-5.3894,-5.3895,-5.3824,-5.3826,-5.3828,-5.3829,0,0,0,0,0,0,0,-5.371,-5.3718,-5.3807,-5.3774,-5.3773,-5.3758,-5.3762,-5.3809,-5.3804,-5.3775,-5.3771,-5.3776,-5.3803,-5.3817,-5.3821,-5.3896,-5.3823,-5.3827,-5.3829,-5.3831,-5.4038,-5.4041,0,0,0,0,0,0,-5.371,-5.3716,-5.3806,-5.3808,-5.3735,-5.3762,-5.3766,-5.3791,-5.3804,-5.3803,-5.3779,-5.3774,-5.3812,-5.3817,-5.3822,-5.3919,-5.3828,-5.3831,-5.3834,-5.4035,-5.4038,-5.4042,0,0,0,0,0,0,-5.3707,-5.3718,-5.3804,-5.3761,-5.3771,-5.3768,-5.3795,-5.3793,-5.3808,-5.3807,-5.3806,-5.3795,-5.381,-5.3817,-5.3876,-5.3919,-5.3833,-5.3837,-5.4031,-5.4036,-5.404,-5.4113,0,0,0,0,0,0,-5.3704,-5.3718,-5.375,-5.3762,-5.3773,-5.3859,-5.3798,-5.3796,-5.3815,-5.3809,-5.3822,-5.3821,-5.3808,-5.387,-5.388,-5.3923,-5.384,-5.4027,-5.4033,-5.4039,-5.4106,-5.4119,-5.413,0,0,0,0,0,-5.37,-5.3767,-5.3752,-5.3763,-5.3814,-5.3861,-5.3867,-5.3853,-5.3819,-5.385,-5.385,-5.3821,-5.3913,-5.3877,-5.3887,-5.3932,-5.4024,-5.4031,-5.4038,-5.4101,-5.4117,-5.413,0,0,0,0,0,0,-5.3757,-5.3768,-5.3751,-5.3825,-5.3843,-5.3852,-5.3891,-5.387,-5.3896,-5.3889,-5.3868,-5.3871,-5.3935,-5.3939,-5.3899,-5.4012,-5.3963,-5.3972,-5.4007,-5.4022,-5.4034,-5.4031,-5.3843,0,0,0,0,0,-5.3779,-5.3819,-5.3825,-5.389,-5.39,-5.3895,-5.3915,-5.3902,-5.3919,-5.3926,-5.393,-5.3946,-5.3978,-5.4,-5.403,-5.4107,-5.4108,-5.4143,-5.4155,-5.4165,-5.4173,-5.4214,-5.423,-5.4065,-5.4065,-5.4065,0,0,-5.3824,-5.3835,-5.386,-5.3902,-5.3914,-5.3955,-5.3901,-5.3945,-5.3975,-5.3932,-5.3989,-5.3992,-5.4008,-5.4077,-5.4107,-5.4083,-5.4219,-5.4174,-5.4181,-5.4184,-5.4223,-5.4239,-5.4252,-5.4069,-5.4069,-5.4068,0,0,-5.3926,-5.3938,-5.3994,-5.4008,-5.4028,-5.4024,-5.4038,-5.4051,-5.4052,-5.4109,-5.4078,-5.4111,-5.4168,-5.4182,-5.4196,-5.4304,-5.4278,-5.4314,-5.4377,-5.4417,-5.443,-5.4441,-5.448,-5.4495,-5.4322,-5.4323,-5.4323,0,-5.3978,-5.4039,-5.4024,-5.4072,-5.4091,-5.4056,-5.4112,-5.4125,-5.4153,-5.4167,-5.4139,-5.421,-5.4219,-5.429,-5.4317,-5.433,-5.4344,-5.4313,-5.443,-5.4441,-5.4451,-5.4488,-5.4503,-5.4327,-5.4327,-5.4326,-5.4326,0,-5.4102,-5.4145,-5.4187,-5.4219,-5.4242,-5.4293,-5.4285,-5.431,-5.4296,-5.4295,-5.4353,-5.4362,-5.4394,-5.441,-5.4395,-5.4479,-5.4464,-5.4433,-5.4383,-5.4472,-5.4506,-5.452,-5.4333,-5.4332,-5.433,-5.4329,0,0,-5.4241,-5.4265,-5.428,-5.4295,-5.4315,-5.4347,-5.4396,-5.4429,-5.4452,-5.4472,-5.4513,-5.4562,-5.4535,-5.4551,-5.4537,-5.4573,-5.4659,-5.4538,-5.4538,-5.456,-5.4752,-5.4776,-5.4792,-5.4641,-5.4644,-5.4646,-5.4751,0,-5.4343,-5.4431,-5.442,-5.4503,-5.4543,-5.4511,-5.4554,-5.457,-5.457,-5.4602,-5.4601,-5.4637,-5.4598,-5.4607,-5.4641,-5.4641,-5.4697,-5.4633,-5.4678,-5.468,-5.4675,-5.481,-5.4834,-5.4933,-5.4764,-5.4767,-5.4768,0,-5.4474,-5.4503,-5.4591,-5.4607,-5.4623,-5.4662,-5.4692,-5.4723,-5.4741,-5.4738,-5.4757,-5.4738,-5.4786,-5.4736,-5.4801,-5.4758,-5.4776,-5.4778,-5.4782,-5.4785,-5.473,-5.4818,-5.4964,-5.4979,-5.4789,-5.4788,-5.4786,0,-5.4568,-5.4627,-5.4688,-5.4701,-5.4721,-5.4749,-5.4758,-5.4773,-5.4794,-5.4819,-5.4832,-5.4862,-5.4879,-5.4902,-5.489,-5.4855,-5.4958,-5.4907,-5.4957,-5.4957,-5.498,-5.4979,-5.5132,-5.4991,-5.4991,-5.4991,-5.499,0,-5.4683,-5.4739,-5.4731,-5.4768,-5.4829,-5.4815,-5.4875,-5.4879,-5.4893,-5.493,-5.4903,-5.4938,-5.4921,-5.4954,-5.4945,-5.5001,-5.5008,-5.5007,-5.5004,-5.5009,-5.501,-5.5021,-5.5014,-5.4994,-5.4994,-5.4993,-5.4992,0,-5.4797,-5.4795,-5.4859,-5.4873,-5.4878,-5.4922,-5.4933,-5.4967,-5.4966,-5.5013,-5.5023,-5.502,-5.5058,-5.5049,-5.5089,-5.5083,-5.5154,-5.5142,-5.5149,-5.5146,-5.5197,-5.5192,-5.5362,-5.5384,-5.5229,-5.523,-5.5232,0,-5.4872,-5.4914,-5.4933,-5.4958,-5.4969,-5.5008,-5.503,-5.5017,-5.5041,-5.5065,-5.5096,-5.5132,-5.516,-5.5221,-5.5222,-5.5253,-5.5241,-5.5299,-5.5246,-5.5251,-5.5243,-5.5241,-5.5245,-5.5309,-5.5311,-5.5313,-5.5314,0,-5.5004,-5.5001,-5.5035,-5.5069,-5.5097,-5.5122,-5.5144,-5.5165,-5.5154,-5.5182,-5.5221,-5.5243,-5.5286,-5.5321,-5.535,-5.5357,-5.5334,-5.5331,-5.5344,-5.535,-5.5353,-5.5353,-5.5178,-5.5327,-5.5325,-5.5325,-5.5324,-5.5323,-5.5101,-5.5137,-5.5158,-5.5196,-5.5212,-5.5235,-5.5268,-5.5272,-5.5305,-5.5341,-5.533,-5.5375,-5.5392,-5.5428,-5.5439,-5.5473,-5.5451,-5.547,-5.5475,-5.548,-5.5487,-5.5348,-5.5478,-5.5478,-5.5477,-5.5477,-5.5477,0,-5.5232,-5.5244,-5.528,-5.5314,-5.5344,-5.5322,-5.5346,-5.5372,-5.5413,-5.5431,-5.546,-5.5506,-5.554,-5.5544,-5.5576,-5.5603,-5.5593,-5.5612,-5.561,-5.5612,-5.5504,-5.549,-5.562,-5.562,-5.5619,-5.5619,-5.5619,-5.5619,-5.5304,-5.5366,-5.5365,-5.5433,-5.5444,-5.549,-5.5505,-5.5525,-5.554,-5.5593,-5.5623,-5.5626,-5.5638,-5.5671,-5.5702,-5.5702,-5.5715,-5.5738,-5.5734,-5.5634,-5.5619,-5.5606,-5.5592,-5.5741,-5.5741,-5.5839,-5.584,-5.5841]}]]